| time (UTC) | temp F | wind direction | speed knots | gust knots | rain 1hr in | rain 24hr in | rain mn in | humidity % | barometer mb |
| 20260504081514 | 36 | 295 | 0.0 | 0.0 | 0.00 | 0.00 | 0.00 | 84 | 1021.0 |
| 20260504050117 | 42 | 295 | 0.0 | 0.0 | 0.00 | 0.00 | 0.00 | 74 | 1021.0 |
| 20260504044550 | 42 | 295 | 0.0 | 0.0 | 0.00 | 0.00 | 0.00 | 74 | 1021.0 |
| 20260504043057 | 42 | 295 | 0.0 | 0.0 | 0.00 | 0.00 | 0.00 | 72 | 1021.0 |
| 20260504041548 | 42 | 295 | 0.0 | 0.0 | 0.00 | 0.00 | 0.00 | 73 | 1021.0 |
| 20260504040045 | 41 | 295 | 0.0 | 0.0 | 0.00 | 0.00 | 0.00 | 73 | 1021.0 |
| 20260504034550 | 41 | 295 | 0.0 | 0.0 | 0.00 | 0.00 | 0.00 | 72 | 1021.0 |
| 20260504033046 | 42 | 295 | 0.0 | 0.0 | 0.00 | 0.00 | 0.00 | 70 | 1021.0 |
| 20260504031602 | 43 | 295 | 0.0 | 0.0 | 0.00 | 0.00 | 0.00 | 70 | 1021.0 |
| 20260504030044 | 43 | 295 | 0.0 | 0.0 | 0.00 | 0.00 | 0.00 | 68 | 1021.0 |
| 20260504024544 | 44 | 295 | 0.0 | 0.0 | 0.00 | 0.00 | 0.00 | 67 | 1021.0 |
| 20260504023042 | 44 | 295 | 0.0 | 0.0 | 0.00 | 0.00 | 0.00 | 65 | 1021.0 |
| 20260504021541 | 45 | 295 | 0.0 | 0.0 | 0.00 | 0.00 | 0.00 | 64 | 1021.0 |
| 20260504020041 | 46 | 295 | 0.0 | 0.0 | 0.00 | 0.00 | 0.00 | 62 | 1021.0 |
| 20260504014541 | 46 | 295 | 0.0 | 0.0 | 0.00 | 0.00 | 0.00 | 62 | 1021.0 |
| 20260504013040 | 47 | 295 | 0.0 | 0.0 | 0.00 | 0.00 | 0.00 | 62 | 1021.0 |
| 20260504011544 | 48 | 295 | 0.0 | 1.7 | 0.00 | 0.00 | 0.00 | 59 | 1021.0 |
| 20260504010044 | 49 | 296 | 0.0 | 0.0 | 0.00 | 0.00 | 0.00 | 58 | 1021.0 |
| 20260504004539 | 50 | 296 | 0.0 | 2.6 | 0.00 | 0.00 | 0.00 | 57 | 1021.0 |
| 20260504003044 | 51 | 300 | 0.9 | 2.6 | 0.00 | 0.00 | 0.00 | 55 | 1021.0 |
| 20260504001549 | 52 | 300 | 0.9 | 3.5 | 0.00 | 0.00 | 0.00 | 54 | 1021.0 |
| 20260504000037 | 53 | 300 | 0.9 | 2.6 | 0.00 | 0.00 | 0.00 | 52 | 1021.0 |
| 20260503234537 | 55 | 301 | 2.6 | 4.3 | 0.00 | 0.00 | 0.00 | 46 | 1021.0 |
| 20260503233037 | 56 | 305 | 2.6 | 6.1 | 0.00 | 0.00 | 0.00 | 45 | 1021.0 |
| 20260503231546 | 57 | 298 | 6.1 | 9.6 | 0.00 | 0.00 | 0.00 | 42 | 1021.0 |
| 20260503230036 | 58 | 284 | 3.5 | 9.6 | 0.00 | 0.00 | 0.00 | 42 | 1021.0 |
| 20260503224535 | 58 | 330 | 3.5 | 13.9 | 0.00 | 0.00 | 0.00 | 40 | 1021.0 |
| 20260503223136 | 59 | 323 | 5.2 | 11.3 | 0.00 | 0.00 | 0.00 | 40 | 1021.0 |
| 20260503221534 | 59 | 338 | 7.0 | 11.3 | 0.00 | 0.00 | 0.00 | 38 | 1021.0 |
| 20260503220038 | 59 | 313 | 3.5 | 11.3 | 0.00 | 0.00 | 0.00 | 41 | 1021.0 |
| 20260503214540 | 59 | 309 | 7.0 | 13.0 | 0.00 | 0.00 | 0.00 | 41 | 1021.0 |
| 20260503213049 | 60 | 321 | 9.6 | 14.8 | 0.00 | 0.00 | 0.00 | 40 | 1021.0 |
| 20260503211533 | 58 | 321 | 6.1 | 14.8 | 0.00 | 0.00 | 0.00 | 41 | 1021.0 |
| 20260503210032 | 59 | 313 | 7.0 | 11.3 | 0.00 | 0.00 | 0.00 | 40 | 1021.0 |
| 20260503204549 | 59 | 317 | 6.1 | 11.3 | 0.00 | 0.00 | 0.00 | 41 | 1021.0 |
| 20260503203028 | 59 | 307 | 3.5 | 12.2 | 0.00 | 0.00 | 0.00 | 43 | 1021.0 |
| 20260503201527 | 58 | 340 | 3.5 | 9.6 | 0.00 | 0.00 | 0.00 | 41 | 1021.0 |
| 20260503200026 | 57 | 327 | 5.2 | 9.6 | 0.00 | 0.00 | 0.00 | 39 | 1021.0 |
| 20260503194525 | 58 | 290 | 4.3 | 9.6 | 0.00 | 0.00 | 0.00 | 38 | 1021.0 |
| 20260503193023 | 58 | 328 | 5.2 | 12.2 | 0.00 | 0.00 | 0.00 | 43 | 1021.0 |
| 20260503191520 | 56 | 315 | 7.0 | 13.9 | 0.00 | 0.00 | 0.00 | 43 | 1021.0 |
| 20260503190020 | 57 | 321 | 4.3 | 13.9 | 0.00 | 0.00 | 0.00 | 44 | 1021.0 |
| 20260503184519 | 56 | 321 | 5.2 | 15.6 | 0.00 | 0.00 | 0.00 | 42 | 1021.0 |
| 20260503183016 | 55 | 305 | 7.0 | 13.9 | 0.00 | 0.00 | 0.00 | 45 | 1021.0 |
| 20260503181516 | 56 | 313 | 8.7 | 13.9 | 0.00 | 0.00 | 0.00 | 47 | 1021.0 |
| 20260503180026 | 55 | 329 | 4.3 | 10.4 | 0.00 | 0.00 | 0.00 | 48 | 1021.0 |
| 20260503174520 | 55 | 329 | 4.3 | 12.2 | 0.00 | 0.00 | 0.00 | 45 | 1021.0 |
| 20260503173015 | 54 | 323 | 1.7 | 12.2 | 0.00 | 0.00 | 0.00 | 41 | 1021.0 |
| 20260503171517 | 54 | 51 | 3.5 | 10.4 | 0.00 | 0.00 | 0.00 | 40 | 1021.0 |